Location: Godiavel Galaoual
(15.2485°N, 12.6604°W)
Time: 13:19:27
(UTC+00:00)

LightSail 2 - Pass Details

Date: 05 June 2020
Orbit: 691 x 722 km, 24.0° (Epoch: 06 July)

Event Time Altitude Azimuth Distance (km) Brightness Sun altitude
Exits shadow 05:01:10 13° 297° (WNW) 2,012 7.2 -17.7°
Maximum altitude 05:05:49 64° 17° (NNE) 789 5.5 -16.7°
Drops below altitude 10° 05:10:59 10° 99° (E) 2,195 8.4 -15.6°
Sets 05:13:27 0° 102° (ESE) 3,116 9.3 -15.1°
